Temp
16 13 12 13 13 15 15 15 15 16 18 18 18 16 12 12 13 13 12 12 11 11 9 9 8 8 8 7 6 6 6 6 6 6 6 5 6 5 5 5 6 6 6 6
13 12 14 15 15 15 16 16 15 15 17 18 16 15 14 11 13 14 13 12 11 9 8 8 8 7 7 6 6 6 6 6 6 6 5 5 5 4 4 4 4 5 6 6
12 14 16 15 15 15 16 16 15 15 14 15 14 14 17 14 14 14 14 13 10 10 8 8 7 6 6 6 5 4 5 4 5 5 4 4 4 3 3 4 3 4 4 4
12 14 15 15 15 16 15 16 15 14 13 12 14 11 14 16 14 13 14 12 10 8 8 7 6 5 5 5 5 4 4 4 3 4 4 4 4 4 3 2 1 1 2 3
12 14 15 14 15 16 14 15 15 14 12 12 13 12 14 14 14 13 13 9 7 7 8 7 5 5 5 5 4 3 4 3 2 3 3 3 3 3 2 1 1 0 -0 2
12 15 14 14 16 16 15 14 12 12 11 8 12 12 10 11 11 12 9 8 7 7 6 5 4 4 5 5 4 3 3 2 2 2 1 2 2 1 1 1 0 -0 -1 -0
12 13 14 15 14 14 15 11 9 9 8 9 13 12 11 9 8 10 7 6 5 6 5 4 4 5 5 5 4 3 3 1 1 1 1 0 0 1 1 -0 -1 -1 -1 -1
10 11 14 14 13 12 12 11 9 10 9 9 13 11 11 8 6 5 4 4 4 5 5 5 6 6 4 3 3 2 2 1 1 0 -0 -1 -1 -1 -1 -1 -1 -1 -2 -2
11 12 15 15 15 14 13 11 12 10 10 8 9 11 9 8 6 5 4 4 5 5 6 7 5 3 2 3 2 2 2 2 0 -0 -0 -1 -1 -1 -2 -2 -2 -1 -2 -2
13 11 13 14 15 15 13 13 11 9 10 9 9 10 9 8 6 5 4 4 5 6 5 4 3 3 3 2 2 2 2 1 -0 -1 -1 -1 -2 -2 -2 -2 -2 -2 -2 -3
13 10 10 13 13 12 12 11 11 10 7 8 8 6 7 8 7 6 5 5 7 6 4 3 2 2 2 2 2 2 1 0 -1 -1 -2 -3 -2 -2 -2 -2 -3 -3 -3 -4
12 9 8 10 12 13 12 11 11 6 9 6 5 7 10 8 8 7 7 7 6 6 5 4 3 3 2 2 2 1 1 0 -0 -1 -2 -2 -2 -3 -3 -4 -4 -4 -4 -4
11 8 6 8 10 10 10 11 10 9 7 7 4 4 9 9 8 9 8 7 6 4 3 2 2 2 1 1 1 0 -0 -0 -1 -1 -3 -3 -3 -4 -5 -5 -5 -5 -5 -5
11 8 7 6 8 8 8 9 9 9 4 6 5 4 3 6 5 7 9 7 5 4 3 2 2 2 1 0 0 -0 -1 -1 -2 -3 -4 -5 -4 -5 -5 -6 -6 -6 -6 -5
8 7 8 8 8 9 8 8 9 8 8 6 8 7 8 5 4 9 8 5 3 1 1 1 1 1 0 0 -0 -1 -2 -3 -3 -4 -5 -5 -5 -6 -6 -6 -6 -6 -5 -5
8 7 7 7 8 8 7 8 8 9 9 9 8 8 9 10 7 6 6 3 1 -1 -1 1 1 -0 -0 -0 -1 -2 -3 -4 -4 -5 -5 -5 -5 -6 -6 -6 -6 -6 -5 -5
7 6 5 6 8 6 4 6 7 8 9 8 7 8 8 7 5 6 5 3 3 -0 -0 1 0 0 1 -0 -2 -3 -4 -4 -5 -5 -6 -6 -6 -6 -6 -6 -6 -6 -6 -6
6 5 4 4 6 4 6 7 8 7 7 6 7 7 7 7 7 8 7 6 2 0 1 1 1 0 0 -1 -2 -3 -4 -5 -5 -5 -6 -6 -6 -6 -5 -5 -6 -6 -6 -6
7 4 2 3 4 6 7 8 8 7 7 8 7 8 7 6 6 4 5 6 6 4 3 2 1 0 -1 -2 -3 -4 -5 -5 -5 -5 -5 -6 -5 -5 -5 -6 -6 -6 -6 -5
7 6 4 2 4 4 6 9 11 8 4 7 7 7 7 6 5 3 5 4 4 3 2 2 -0 -1 -2 -3 -4 -4 -5 -5 -5 -5 -5 -5 -5 -4 -5 -5 -5 -5 -5 -5
3 2 4 4 5 4 6 8 9 6 5 7 7 8 7 4 6 7 5 4 4 2 1 0 -1 -2 -2 -3 -4 -4 -5 -5 -5 -4 -4 -4 -3 -4 -5 -4 -4 -4 -4 -5
5 4 4 4 4 4 8 8 7 5 7 8 8 8 7 7 7 6 5 3 2 1 -0 -0 -1 -2 -2 -3 -3 -4 -4 -5 -5 -4 -4 -3 -3 -4 -4 -4 -4 -4 -4 -5
5 5 4 5 4 6 7 7 7 7 7 8 8 8 7 7 6 5 3 2 2 1 0 -0 -1 -2 -3 -3 -4 -4 -4 -4 -4 -3 -3 -3 -3 -3 -3 -3 -4 -4 -4 -5
5 6 4 5 6 6 7 7 8 9 7 7 8 8 7 6 5 4 3 2 1 1 0 -0 -1 -2 -2 -3 -4 -4 -4 -3 -3 -3 -2 -3 -3 -3 -3 -3 -3 -4 -4 -4
5 5 4 3 4 5 7 9 9 9 8 7 8 7 7 5 4 4 2 2 1 1 -0 -0 -1 -1 -2 -3 -3 -3 -3 -3 -3 -3 -3 -3 -3 -3 -3 -4 -4 -4 -4 -4
6 5 1 2 6 5 6 8 8 8 8 7 8 6 5 5 5 3 2 2 1 0 -0 -1 -1 -2 -2 -2 -2 -3 -3 -2 -2 -2 -3 -3 -3 -3 -4 -4 -4 -4 -4 -5
Height
1511 1516 1519 1512 1510 1506 1506 1508 1509 1499 1490 1489 1492 1495 1495 1493 1497 1497 1495 1496 1498 1503 1508 1510 1512 1515 1518 1519 1520 1521 1521 1522 1522 1521 1520 1517 1514 1513 1511 1511 1509 1509 1509 1507
1515 1514 1505 1504 1503 1505 1503 1503 1502 1496 1492 1491 1492 1494 1489 1491 1489 1487 1486 1491 1495 1502 1506 1507 1510 1514 1516 1517 1517 1518 1519 1518 1520 1520 1519 1517 1514 1512 1510 1509 1507 1507 1506 1505
1514 1505 1499 1502 1501 1500 1498 1499 1499 1500 1496 1493 1493 1494 1483 1484 1486 1488 1490 1491 1494 1493 1498 1504 1508 1513 1516 1517 1517 1518 1520 1519 1517 1517 1517 1515 1512 1512 1510 1509 1507 1505 1505 1503
1506 1497 1497 1499 1499 1496 1501 1493 1494 1498 1503 1514 1498 1513 1485 1479 1481 1481 1482 1484 1488 1492 1499 1504 1507 1510 1514 1515 1516 1517 1519 1519 1517 1515 1515 1515 1512 1510 1508 1508 1508 1505 1504 1502
1504 1496 1497 1498 1496 1491 1497 1491 1494 1495 1503 1507 1505 1512 1484 1478 1483 1480 1476 1478 1485 1491 1497 1501 1504 1508 1512 1514 1514 1516 1518 1518 1517 1514 1514 1512 1511 1509 1508 1508 1507 1507 1503 1501
1499 1495 1494 1493 1490 1490 1491 1494 1497 1500 1506 1525 1503 1504 1499 1490 1489 1481 1480 1483 1487 1491 1497 1502 1505 1507 1511 1513 1512 1511 1514 1514 1515 1513 1513 1512 1510 1509 1509 1507 1507 1506 1503 1501
1494 1491 1487 1487 1492 1489 1491 1504 1524 1523 1523 1518 1497 1500 1493 1492 1488 1482 1484 1486 1487 1489 1494 1498 1502 1507 1508 1510 1510 1509 1512 1511 1512 1512 1512 1512 1510 1508 1507 1507 1506 1505 1503 1501
1501 1501 1480 1478 1485 1490 1491 1501 1520 1516 1518 1514 1493 1501 1492 1494 1492 1485 1485 1489 1492 1494 1498 1501 1503 1505 1506 1506 1507 1508 1510 1511 1509 1510 1511 1511 1511 1509 1508 1506 1505 1504 1502 1500
1493 1489 1475 1474 1476 1481 1490 1500 1492 1505 1504 1515 1504 1493 1497 1497 1496 1493 1492 1494 1496 1497 1497 1498 1498 1499 1502 1505 1506 1507 1506 1509 1510 1510 1509 1512 1510 1509 1509 1507 1504 1503 1502 1500
1483 1490 1478 1478 1478 1480 1483 1484 1500 1507 1508 1508 1502 1493 1492 1495 1495 1494 1493 1492 1493 1494 1494 1494 1495 1498 1500 1503 1505 1504 1506 1506 1509 1510 1508 1511 1511 1509 1507 1507 1504 1503 1502 1500
1480 1487 1489 1481 1484 1488 1489 1490 1491 1494 1506 1509 1507 1502 1482 1483 1485 1487 1487 1487 1485 1486 1488 1492 1494 1496 1499 1500 1503 1504 1503 1505 1507 1508 1509 1511 1509 1508 1508 1507 1505 1503 1502 1500
1481 1488 1495 1488 1482 1483 1485 1489 1490 1510 1497 1505 1513 1485 1474 1474 1477 1479 1480 1479 1481 1481 1483 1486 1489 1492 1496 1498 1501 1502 1502 1503 1506 1508 1509 1510 1508 1508 1508 1507 1505 1503 1502 1501
1482 1492 1506 1494 1488 1485 1485 1487 1491 1494 1497 1499 1519 1503 1474 1474 1475 1475 1474 1475 1477 1479 1482 1485 1488 1490 1493 1496 1498 1500 1501 1502 1504 1506 1508 1508 1508 1508 1508 1507 1506 1504 1503 1502
1480 1489 1494 1506 1494 1494 1491 1485 1490 1493 1512 1501 1495 1495 1488 1478 1475 1470 1469 1468 1469 1473 1478 1481 1484 1486 1488 1493 1495 1498 1501 1502 1503 1505 1507 1507 1508 1508 1508 1507 1506 1505 1504 1502
1483 1492 1489 1488 1490 1489 1488 1485 1483 1487 1487 1494 1475 1478 1472 1470 1466 1461 1460 1465 1465 1469 1472 1476 1481 1486 1487 1489 1493 1496 1499 1501 1503 1505 1506 1507 1508 1508 1508 1508 1507 1506 1505 1504
1483 1487 1486 1485 1485 1485 1481 1482 1480 1476 1472 1475 1473 1462 1463 1457 1457 1457 1455 1457 1460 1463 1466 1472 1478 1482 1486 1488 1491 1494 1497 1500 1502 1504 1506 1507 1507 1508 1508 1508 1507 1507 1506 1504
1484 1487 1491 1490 1485 1489 1486 1479 1470 1463 1465 1467 1469 1460 1455 1455 1454 1452 1451 1452 1451 1456 1462 1469 1474 1477 1481 1485 1488 1492 1496 1499 1501 1503 1505 1506 1507 1507 1508 1507 1507 1507 1506 1505
1485 1487 1493 1495 1491 1492 1472 1465 1462 1464 1462 1460 1457 1453 1451 1451 1448 1444 1445 1448 1452 1455 1460 1467 1471 1475 1478 1482 1487 1491 1495 1498 1501 1503 1504 1505 1506 1506 1507 1507 1507 1507 1506 1506
1474 1483 1495 1497 1494 1472 1469 1458 1458 1459 1460 1453 1452 1448 1450 1447 1446 1444 1444 1447 1449 1451 1458 1463 1467 1472 1476 1480 1485 1490 1494 1497 1499 1501 1502 1504 1505 1505 1506 1507 1507 1507 1507 1506
1466 1472 1485 1495 1487 1480 1460 1451 1450 1451 1467 1451 1449 1448 1445 1446 1450 1445 1443 1446 1450 1453 1457 1461 1465 1469 1474 1479 1483 1488 1492 1494 1497 1499 1500 1502 1503 1504 1505 1506 1506 1506 1506 1506
1478 1482 1478 1480 1478 1472 1453 1451 1453 1460 1460 1447 1446 1445 1443 1446 1443 1441 1442 1445 1450 1453 1455 1460 1464 1468 1473 1478 1482 1486 1489 1492 1495 1497 1498 1500 1502 1504 1505 1505 1506 1506 1506 1505
1466 1471 1472 1475 1474 1469 1447 1450 1456 1452 1446 1444 1441 1440 1441 1441 1440 1440 1441 1445 1448 1451 1456 1459 1463 1468 1472 1476 1480 1484 1487 1490 1493 1495 1497 1499 1501 1502 1504 1504 1505 1505 1505 1504
1461 1456 1462 1461 1459 1449 1448 1449 1449 1447 1445 1442 1438 1438 1439 1439 1439 1440 1441 1443 1447 1452 1456 1460 1463 1467 1471 1475 1478 1482 1485 1488 1490 1492 1495 1497 1499 1501 1502 1503 1503 1503 1503 1502
1455 1453 1457 1454 1449 1447 1444 1443 1442 1440 1439 1439 1438 1437 1437 1438 1439 1440 1441 1444 1446 1451 1455 1459 1462 1465 1468 1472 1476 1480 1482 1485 1487 1489 1492 1494 1496 1498 1499 1500 1500 1500 1500 1499
1455 1455 1452 1451 1447 1444 1439 1438 1436 1435 1435 1437 1435 1434 1435 1437 1438 1439 1441 1443 1447 1450 1454 1458 1460 1463 1467 1470 1473 1476 1479 1482 1485 1487 1490 1492 1493 1495 1496 1497 1498 1497 1497 1497
1447 1446 1452 1449 1439 1440 1436 1433 1431 1430 1429 1430 1431 1431 1433 1435 1436 1438 1441 1444 1446 1449 1452 1455 1459 1462 1464 1467 1469 1473 1475 1479 1481 1484 1487 1489 1491 1492 1492 1493 1494 1494 1494 1493
Wind_Speed
4 1 7 8 8 8 8 6 7 4 5 3 4 4 9 18 16 17 27 33 33 30 25 22 18 13 9 5 5 4 2 3 3 4 5 8 7 4 7 10 13 13 14 14
4 8 11 7 9 7 7 6 6 6 3 1 5 7 9 14 25 33 34 34 33 32 30 25 19 13 8 6 5 6 5 4 3 2 3 5 4 3 6 9 12 12 12 14
8 7 5 6 8 11 5 4 3 3 4 1 3 5 4 6 15 18 18 31 30 40 37 28 19 12 7 4 5 4 4 5 3 1 3 4 5 4 6 6 8 11 13 14
8 12 11 8 6 2 2 2 2 3 5 2 5 6 7 4 5 10 24 26 33 38 34 26 20 15 9 5 4 5 5 6 3 1 1 3 3 2 5 7 9 10 12 13
8 4 2 1 4 2 5 3 3 1 2 2 4 4 4 7 8 9 10 24 33 37 33 28 22 17 11 5 4 4 4 4 3 2 3 3 3 4 5 6 7 9 11 12
7 10 4 5 1 1 2 4 6 4 3 2 7 6 4 1 3 6 7 23 31 35 32 27 23 18 11 6 6 6 4 1 1 2 4 5 5 5 6 6 7 9 12 14
3 10 10 7 5 3 2 5 3 3 1 5 3 3 6 4 6 5 13 22 32 36 35 31 24 15 10 9 9 8 5 2 2 3 4 5 5 6 6 8 10 12 13 15
6 5 3 4 10 8 7 8 5 6 3 4 3 5 4 3 7 19 22 26 32 34 30 23 16 16 15 11 9 8 5 3 3 4 4 5 5 6 7 9 12 12 13 15
3 5 3 3 3 9 4 4 6 3 1 1 4 0 2 4 6 14 20 25 29 28 24 22 22 20 14 10 10 9 8 6 5 6 5 5 5 5 7 10 12 11 12 13
4 2 3 4 5 3 7 4 1 1 2 4 3 5 5 6 7 9 14 26 30 28 26 26 24 19 13 11 10 9 7 6 7 8 6 5 5 6 7 10 10 10 11 12
2 3 5 3 2 3 4 2 0 3 5 4 4 6 6 10 12 14 18 29 34 33 31 27 22 17 14 11 10 8 6 6 6 8 7 5 4 5 6 7 8 9 12 13
1 3 2 6 4 3 5 6 5 3 4 3 3 11 4 9 14 19 24 34 33 33 32 28 24 19 14 12 12 9 7 6 5 6 5 4 1 2 4 9 11 12 13 13
1 1 2 6 5 5 2 3 4 2 1 5 4 6 3 4 9 22 25 31 33 32 31 28 22 17 15 14 13 9 6 6 6 6 5 3 4 5 8 12 12 13 14 13
6 3 5 6 3 1 7 11 3 2 2 3 7 8 4 10 10 16 23 29 36 34 33 29 23 20 17 14 11 9 7 7 7 8 8 8 9 10 11 12 12 13 15 15
5 6 5 4 5 6 13 16 17 12 8 7 18 14 11 10 10 17 17 24 30 33 34 30 24 19 19 16 13 11 11 10 9 10 10 9 10 11 10 10 11 12 13 14
2 4 4 5 5 10 18 15 16 18 18 13 12 21 9 17 6 9 18 27 30 31 33 30 23 21 18 15 14 15 13 12 11 10 10 9 10 10 8 8 9 8 11 13
1 3 2 4 4 6 10 8 16 17 11 8 13 15 7 5 8 17 21 29 35 33 33 30 27 23 19 15 16 16 15 14 13 11 11 10 10 9 7 6 6 7 9 10
4 4 2 3 2 11 5 5 11 8 8 10 8 8 6 10 13 17 22 24 27 29 30 29 23 23 20 18 18 16 17 15 15 13 13 12 11 10 9 7 6 5 5 6
14 5 2 2 5 12 12 13 4 6 7 3 6 4 7 6 2 2 11 15 18 23 24 21 21 22 21 21 20 19 19 18 17 15 15 14 12 11 10 9 6 4 2 4
9 9 5 3 3 4 6 3 6 4 4 3 4 5 4 5 2 4 13 16 17 19 19 20 21 22 22 21 21 20 22 21 20 18 17 15 13 12 11 9 6 4 1 3
3 2 11 8 6 6 8 12 5 2 6 5 5 10 8 5 9 6 16 17 15 17 20 21 22 24 23 24 24 24 23 21 19 16 16 14 13 12 10 8 5 2 1 2
6 6 4 6 6 8 7 3 5 5 7 10 11 11 9 15 11 11 20 19 20 22 22 22 24 24 24 24 24 23 22 20 18 15 14 14 12 11 10 7 5 4 3 3
3 5 4 7 6 4 2 3 10 10 12 17 12 13 13 12 14 21 23 22 23 22 22 23 23 23 24 23 22 22 22 20 19 18 17 16 13 11 8 7 6 6 5 4
5 5 1 2 3 5 17 21 18 20 25 25 17 16 15 16 21 25 24 26 26 25 25 25 24 24 25 25 23 22 21 21 21 20 20 17 15 12 10 10 9 8 7 7
5 5 6 4 11 15 15 14 9 13 19 20 17 16 16 19 25 26 27 28 28 26 25 23 23 22 22 23 23 24 24 23 23 22 21 19 17 14 12 11 11 10 10 9
7 5 3 5 11 8 14 16 14 17 20 22 19 19 21 19 23 27 28 28 27 26 25 24 22 20 20 23 24 25 25 25 25 24 23 20 18 15 14 13 12 11 11 11
Wind_Direction
262 157 231 231 212 243 276 270 241 265 280 29 228 279 231 200 207 204 199 196 190 183 178 186 190 202 210 228 253 268 274 274 266 236 189 203 239 281 317 335 332 335 338 339
309 242 246 244 267 229 249 266 284 268 39 307 309 269 229 178 214 212 203 199 188 174 169 176 185 194 204 218 245 253 268 303 298 281 217 218 241 296 322 331 324 329 333 338
223 253 295 252 278 271 238 229 291 283 330 92 318 286 187 216 221 234 229 214 190 181 172 176 183 184 188 203 232 271 301 333 341 314 236 228 245 286 298 324 331 330 333 337
251 245 243 266 224 164 250 1 115 35 58 261 35 293 263 223 230 218 227 198 183 177 176 173 175 170 169 184 260 287 305 325 340 45 176 191 228 298 355 352 341 333 333 336
243 293 303 289 242 221 207 106 71 24 46 96 230 216 284 358 313 315 241 174 167 167 173 172 168 168 163 173 252 263 294 325 350 8 16 8 350 6 358 345 336 341 336 335
231 273 282 223 201 242 159 59 27 20 81 327 212 199 294 15 258 302 66 144 151 161 164 160 160 158 158 181 250 253 249 285 310 330 349 344 347 353 348 354 346 347 338 341
335 266 238 216 243 323 130 67 354 321 336 226 201 237 252 340 323 260 139 137 148 159 157 155 156 168 194 215 232 239 224 216 275 302 331 343 336 331 342 351 353 347 340 347
185 312 181 204 196 190 177 151 170 230 215 247 341 258 280 54 55 92 116 129 140 150 156 160 183 203 204 202 219 225 231 258 264 254 293 319 322 334 341 350 349 347 347 351
213 245 325 51 155 146 200 157 200 202 273 45 220 192 120 114 94 105 117 135 147 155 170 188 191 191 192 206 219 233 232 259 259 248 268 299 307 316 335 347 348 355 358 2
214 236 33 14 3 2 155 167 133 11 239 244 233 236 211 191 168 155 158 165 170 177 186 189 191 195 202 217 224 222 244 240 245 242 255 282 292 322 346 351 357 9 15 19
108 117 288 79 169 198 337 297 241 173 153 215 292 256 208 183 184 186 198 183 187 193 193 188 193 202 214 219 230 231 229 233 233 229 245 264 294 327 350 13 33 41 37 37
238 139 206 249 245 217 201 211 189 142 268 237 165 271 278 180 190 194 204 203 200 203 198 198 199 205 218 221 231 235 228 219 218 228 230 254 299 354 50 53 58 51 42 37
334 29 13 335 337 19 2 73 91 237 127 206 153 272 343 189 201 220 215 213 207 205 198 197 198 206 213 219 224 223 215 199 191 189 176 113 102 97 90 69 61 55 45 45
105 150 184 208 216 263 289 283 305 184 175 263 235 276 279 271 259 258 247 226 208 204 204 202 203 206 206 207 206 196 195 180 163 152 137 103 101 104 95 78 66 61 53 53
128 223 228 195 223 264 266 278 295 276 236 211 281 254 287 245 238 267 259 210 201 202 204 202 201 204 195 190 184 194 183 164 150 137 131 122 113 104 95 83 72 61 59 59
192 238 218 272 267 260 271 274 271 263 270 258 257 278 233 273 215 210 212 203 198 201 205 198 197 202 197 193 196 187 178 163 154 146 141 136 126 117 112 97 76 67 63 55
120 179 127 256 228 314 290 218 244 252 250 237 258 260 267 243 218 223 216 214 210 203 205 199 204 205 199 207 196 182 169 163 158 158 158 151 146 138 134 112 98 79 62 50
178 146 134 227 26 267 256 267 261 252 246 261 266 245 236 262 267 258 234 220 210 210 207 204 209 201 203 191 179 172 167 169 172 176 168 163 159 149 143 133 116 92 68 48
203 161 178 198 227 288 302 282 238 194 265 287 254 258 190 145 72 3 208 216 222 218 207 205 201 196 184 177 175 171 174 182 185 179 173 169 167 159 149 149 139 112 66 16
188 198 169 161 229 244 239 281 359 127 268 305 321 298 294 181 325 265 205 207 207 202 204 197 191 182 176 178 179 182 185 189 188 181 182 177 174 172 169 165 154 146 153 335
141 160 203 216 236 273 252 271 299 172 238 252 262 296 259 193 227 286 193 198 205 203 194 187 180 179 182 184 189 192 194 195 194 186 185 181 179 178 185 190 192 200 271 290
174 172 196 203 218 258 241 285 180 231 229 259 274 292 265 237 251 203 184 184 188 182 179 183 180 185 189 192 193 197 199 199 199 194 185 187 187 187 191 196 212 233 249 269
195 198 181 190 204 260 332 221 302 264 278 288 265 267 253 223 202 185 182 186 182 184 184 188 192 192 194 196 201 203 202 200 193 192 189 186 183 188 194 200 215 229 239 264
15 45 222 316 253 266 292 288 280 287 273 261 255 257 237 217 196 190 193 188 186 189 189 191 196 200 198 199 204 208 207 199 193 191 190 189 191 196 202 212 224 239 254 272
207 254 203 215 257 275 280 296 292 273 259 249 243 248 228 214 199 200 195 192 191 193 196 201 204 206 208 207 204 200 197 197 194 192 195 197 202 205 210 218 233 249 265 278
209 212 177 237 268 268 278 294 264 251 256 235 238 218 212 218 213 202 199 197 197 201 202 204 208 208 210 208 203 199 196 198 198 199 203 205 211 215 221 229 239 253 268 282